Weather History for Pine Bluff, AR

Change the Weather History Date:

Wednesday, May 2, 2012

  Actual Average Record
Temperature  
Mean Temperature 75 °F 68 °F  
Max Temperature 88 °F 78 °F 93 °F (1946)
Min Temperature 62 °F 57 °F 36 °F (1909)
Degree Days  
Heating Degree Days 0 1  
Month to date heating degree days 0 3  
Since 1 July heating degree days 2206 2867  
Cooling Degree Days 10 4  
Month to date cooling degree days 24 8  
Year to date cooling degree days 212 95  
Growing Degree Days 26 (Base 50)    
Moisture  
Dew Point 67 °F    
Average Humidity 72    
Maximum Humidity 93    
Minimum Humidity 50    
Precipitation  
Precipitation 0.00 in 0.17 in 3.64 in (1984)
Month to date precipitation 0.00 0.34  
Year to date precipitation 12.30 18.49  
Snow  
Snow 0.00 in 0.00 in - ()
Month to date snowfall 0.0 0.0  
Since 1 July snowfall 0.5 3.1  
Snow Depth 0.00 in    
Sea Level Pressure  
Sea Level Pressure 29.95 in    
Wind  
Wind Speed 7 mph (SSE)    
Max Wind Speed 32 mph    
Max Gust Speed 43 mph    
Visibility 10 miles    
Events Thunderstorm    
T = Trace of Precipitation, MM = Missing Value Source: NWS Daily Summary

Daily Weather History Graph

Daily Weather History Graph

Search for Another Location

Airport:

Trip Planner

Search our weather history database for the weather conditions in past years. The results will help you decide how hot, cold, wet, or windy it might be!

Date:

Astronomy

May. 02, 2012 Rise Set
Actual Time 6:16 AM CDT 7:53 PM CDT
Civil Twilight 5:49 AM CDT 8:19 PM CDT
Nautical Twilight 5:17 AM CDT 8:52 PM CDT
Astronomical Twilight 4:43 AM CDT 9:26 PM CDT
Moon 4:14 PM CDT (5/2) 3:36 AM CDT (5/2)
Length of Visible Light 14h 29m
Length of Day
13h 36m
Waxing Gibbous, 83% of the Moon is Illuminated
May 2
Waxing Gibbous
May 5
Full
May 12
Last Quarter
May 20
New
May 28
First Quarter

Hourly Weather History & Observations

Time (CDT) Temp. Heat Index Dew Point Humidity Pressure Visibility Wind Dir Wind Speed Gust Speed Precip Events Conditions
12:53 AM 71.1 °F - 64.0 °F 78% 29.93 in 10.0 mi South 3.5 mph - N/A   Clear
1:53 AM 68.0 °F - 64.0 °F 87% 29.93 in 10.0 mi Calm Calm - N/A   Clear
2:53 AM 66.0 °F - 63.0 °F 90% 29.93 in 10.0 mi Calm Calm - N/A   Clear
3:53 AM 66.9 °F - 64.0 °F 90% 29.94 in 10.0 mi South 5.8 mph - N/A   Clear
4:53 AM 66.9 °F - 64.0 °F 90% 29.94 in 10.0 mi South 3.5 mph - N/A   Clear
5:53 AM 64.9 °F - 63.0 °F 93% 29.95 in 10.0 mi Calm Calm - N/A   Clear
6:53 AM 64.0 °F - 63.0 °F 96% 29.97 in 5.0 mi Calm Calm - N/A   Clear
7:53 AM 70.0 °F - 66.0 °F 87% 29.98 in 10.0 mi SSE 4.6 mph - N/A   Clear
8:53 AM 73.9 °F - 66.0 °F 76% 29.99 in 10.0 mi South 9.2 mph - N/A   Clear
9:53 AM 78.1 °F - 68.0 °F 71% 29.99 in 10.0 mi South 10.4 mph - N/A   Clear
10:53 AM 79.0 °F - 68.0 °F 69% 29.99 in 10.0 mi South 9.2 mph - N/A   Clear
11:53 AM 80.1 °F 82.7 °F 68.0 °F 67% 29.99 in 10.0 mi SW 9.2 mph - N/A   Mostly Cloudy
12:53 PM 82.9 °F 85.8 °F 68.0 °F 60% 29.96 in 10.0 mi SSW 8.1 mph - N/A   Mostly Cloudy
1:53 PM 84.9 °F 88.2 °F 68.0 °F 57% 29.94 in 10.0 mi South 10.4 mph - N/A   Partly Cloudy
2:53 PM 86.0 °F 88.8 °F 66.9 °F 53% 29.92 in 10.0 mi South 8.1 mph - N/A   Mostly Cloudy
3:53 PM 86.0 °F 88.8 °F 66.9 °F 53% 29.90 in 10.0 mi SSW 5.8 mph - N/A   Partly Cloudy
4:53 PM 87.1 °F 90.6 °F 68.0 °F 53% 29.88 in 10.0 mi South 6.9 mph - N/A   Clear
5:53 PM 87.1 °F 89.9 °F 66.9 °F 51% 29.89 in 10.0 mi South 4.6 mph - N/A   Clear
6:45 PM 78.8 °F - 68.0 °F 69% 29.93 in 10.0 mi SE 27.6 mph 36.8 mph N/A Thunderstorm Mostly Cloudy
6:53 PM 78.1 °F - 68.0 °F 71% 29.93 in 10.0 mi SE 20.7 mph 33.4 mph N/A Thunderstorm Mostly Cloudy
7:13 PM 77.0 °F - 68.0 °F 74% 29.93 in 10.0 mi SSE 19.6 mph - N/A   Scattered Clouds
7:53 PM 75.0 °F - 68.0 °F 79% 29.95 in 10.0 mi SE 12.7 mph 20.7 mph N/A   Partly Cloudy
8:35 PM 73.4 °F - 71.6 °F 94% 29.96 in 10.0 mi ESE 15.0 mph 19.6 mph N/A   Mostly Cloudy
8:53 PM 73.0 °F - 70.0 °F 90% 29.95 in 10.0 mi SE 12.7 mph - N/A   Mostly Cloudy
9:11 PM 73.4 °F - 69.8 °F 88% 29.95 in 10.0 mi SE 11.5 mph - N/A   Scattered Clouds
9:53 PM 72.0 °F - 69.1 °F 91% 29.95 in 10.0 mi SSE 8.1 mph - N/A   Clear
10:53 PM 71.1 °F - 69.1 °F 93% 29.94 in 10.0 mi SSE 5.8 mph - N/A   Clear
11:53 PM 68.0 °F - 66.9 °F 96% 29.95 in 10.0 mi ESE 4.6 mph - N/A   Clear